DW3092 Weather Reports


Display with metric or nautical units.
time (UTC)temp
F
wind
direction
speed
MPH
gust
MPH
rain 1hr
in
rain 24hr
in
rain mn
in
humidity
%
barometer
mb
20240722233503 79 0 0.0 0.0 0.00 0.00 0.00 77 1015.5
20240722233003 79 0 0.0 0.0 0.00 0.00 0.00 77 1015.6
20240722232503 79 0 0.0 0.0 0.00 0.00 0.00 78 1015.6
20240722232003 80 0 0.0 0.0 0.00 0.00 0.00 78 1015.5
20240722231503 80 0 0.0 0.0 0.00 0.00 0.00 77 1015.6
20240722231003 80 0 0.0 0.0 0.00 0.00 0.00 77 1015.5
20240722230503 80 343 0.0 1.0 0.00 0.00 0.00 77 1015.5
20240722230213 80 343 0.0 6.0 0.00 0.00 0.00 77 1015.5
20240722225503 80 344 0.0 6.0 0.00 0.00 0.00 77 1015.6
20240722225003 80 340 0.0 5.0 0.00 0.00 0.00 76 1015.6
20240722224714 80 340 0.0 5.0 0.00 0.00 0.00 76 1015.7
20240722224003 80 339 0.0 2.0 0.00 0.00 0.00 75 1015.6
20240722223712 81 339 0.0 2.0 0.00 0.00 0.00 75 1015.6
20240722223003 81 0 0.0 0.0 0.00 0.00 0.00 74 1015.6
20240722222503 81 0 0.0 0.0 0.00 0.00 0.00 74 1015.6
20240722222213 81 0 0.0 0.0 0.00 0.00 0.00 74 1015.6
20240722221503 81 339 0.0 1.0 0.00 0.00 0.00 73 1015.6
20240722221003 81 339 0.0 2.0 0.00 0.00 0.00 72 1015.6
20240722220503 82 339 0.0 2.0 0.00 0.00 0.00 72 1015.7
20240722220003 82 339 0.0 2.0 0.00 0.00 0.00 71 1015.7
20240722215503 82 351 0.0 6.0 0.00 0.00 0.00 70 1015.7
20240722215003 82 357 0.0 6.0 0.00 0.00 0.00 69 1015.7
20240722214503 82 4 0.0 4.0 0.00 0.00 0.00 69 1015.7
20240722214003 82 359 0.0 4.0 0.00 0.00 0.00 67 1015.7
20240722213503 83 343 0.0 2.0 0.00 0.00 0.00 67 1015.6
20240722213003 83 343 0.0 1.0 0.00 0.00 0.00 67 1015.6
20240722212503 83 343 0.0 3.0 0.00 0.00 0.00 66 1015.7
20240722212003 83 342 0.0 5.0 0.00 0.00 0.00 65 1015.7
20240722211503 84 341 0.0 5.0 0.00 0.00 0.00 65 1015.7
20240722211003 84 0 0.0 0.0 0.00 0.00 0.00 64 1015.7
20240722210714 84 339 0.0 2.0 0.00 0.00 0.00 64 1015.7
20240722210003 84 336 0.0 8.0 0.00 0.00 0.00 64 1015.8
20240722205503 84 333 0.0 8.0 0.00 0.00 0.00 62 1015.7
20240722205003 84 317 0.0 2.0 0.00 0.00 0.00 62 1015.7
20240722204503 85 317 0.0 2.0 0.00 0.00 0.00 64 1015.7
20240722204212 84 317 0.0 2.0 0.00 0.00 0.00 61 1015.8
20240722203503 84 317 0.0 3.0 0.00 0.00 0.00 61 1015.8
20240722202503 85 317 0.0 4.0 0.00 0.00 0.00 58 1016.0
20240722202003 85 316 0.0 2.0 0.00 0.00 0.00 59 1015.9
20240722201713 85 316 0.0 2.0 0.00 0.00 0.00 59 1015.9
20240722201003 85 316 0.0 3.0 0.00 0.00 0.00 59 1016.0
20240722200503 85 316 0.0 3.0 0.00 0.00 0.00 58 1016.0
20240722200003 85 316 0.0 2.0 0.00 0.00 0.00 59 1016.1
20240722195503 84 316 0.0 2.0 0.00 0.00 0.00 59 1016.1
20240722195003 84 316 0.0 3.0 0.00 0.00 0.00 59 1016.1
20240722194503 84 316 0.0 3.0 0.00 0.00 0.00 59 1016.1
20240722194003 85 316 0.0 2.0 0.00 0.00 0.00 58 1016.1
20240722193503 85 316 0.0 2.0 0.00 0.00 0.00 58 1016.1
20240722193003 85 312 0.0 4.0 0.00 0.00 0.00 59 1016.1
20240722192503 85 300 1.0 7.0 0.00 0.00 0.00 60 1016.1
20240722192003 85 267 0.0 7.0 0.00 0.00 0.00 58 1016.2
20240722191503 86 257 0.0 4.0 0.00 0.00 0.00 57 1016.3
20240722191003 86 257 0.0 1.0 0.00 0.00 0.00 56 1016.3
20240722190713 86 257 0.0 1.0 0.00 0.00 0.00 56 1016.1
20240722190003 86 0 0.0 0.0 0.00 0.00 0.00 56 1016.2
20240722185503 86 257 0.0 3.0 0.00 0.00 0.00 55 1016.3
20240722185003 86 257 0.0 3.0 0.00 0.00 0.00 55 1016.3
20240722184503 86 257 0.0 1.0 0.00 0.00 0.00 55 1016.4
20240722184214 86 257 0.0 3.0 0.00 0.00 0.00 55 1016.4
20240722183503 86 257 0.0 3.0 0.00 0.00 0.00 53 1016.5
20240722183003 87 257 0.0 7.0 0.00 0.00 0.00 54 1016.5
20240722182713 87 257 0.0 7.0 0.00 0.00 0.00 54 1016.5
20240722182003 86 256 0.0 1.0 0.00 0.00 0.00 57 1016.5
20240722181504 86 256 0.0 3.0 0.00 0.00 0.00 59 1016.6
20240722181003 86 256 0.0 3.0 0.00 0.00 0.00 56 1016.6
20240722180503 86 256 0.0 2.0 0.00 0.00 0.00 56 1016.6
20240722180003 86 255 0.0 3.0 0.00 0.00 0.00 57 1016.7
20240722175503 85 255 0.0 3.0 0.00 0.00 0.00 56 1016.8
20240722175214 86 255 1.0 3.0 0.00 0.00 0.00 56 1016.7
20240722174503 85 255 1.0 3.0 0.00 0.00 0.00 55 1016.9
20240722174003 85 255 0.0 3.0 0.00 0.00 0.00 56 1016.8
20240722173714 85 255 0.0 4.0 0.00 0.00 0.00 56 1016.9
20240722173003 85 255 0.0 4.0 0.00 0.00 0.00 57 1016.9
20240722172503 85 254 0.0 1.0 0.00 0.00 0.00 58 1016.9
20240722172213 85 254 0.0 1.0 0.00 0.00 0.00 57 1016.9
20240722171503 85 254 0.0 2.0 0.00 0.00 0.00 57 1017.0
20240722171003 85 254 0.0 2.0 0.00 0.00 0.00 56 1017.0
20240722170503 85 254 0.0 2.0 0.00 0.00 0.00 58 1017.0
20240722170003 85 0 0.0 0.0 0.00 0.00 0.00 59 1017.0
20240722165503 84 254 0.0 1.0 0.00 0.00 0.00 58 1017.1
20240722165003 84 254 0.0 1.0 0.00 0.00 0.00 61 1017.2
20240722164503 84 254 0.0 3.0 0.00 0.00 0.00 59 1017.2
20240722164213 83 254 0.0 3.0 0.00 0.00 0.00 60 1017.2
20240722163714 83 254 0.0 3.0 0.00 0.00 0.00 59 1017.3
20240722163003 83 254 0.0 2.0 0.00 0.00 0.00 60 1017.4
20240722162503 83 254 0.0 2.0 0.00 0.00 0.00 58 1017.4
20240722162003 83 254 0.0 2.0 0.00 0.00 0.00 58 1017.4
20240722161503 83 254 0.0 3.0 0.00 0.00 0.00 58 1017.5
20240722161003 84 254 0.0 3.0 0.00 0.00 0.00 56 1017.5
20240722160714 84 254 0.0 3.0 0.00 0.00 0.00 57 1017.6
20240722160003 84 0 0.0 0.0 0.00 0.00 0.00 57 1017.7
20240722155503 83 254 0.0 3.0 0.00 0.00 0.00 59 1017.6
20240722155213 83 254 0.0 3.0 0.00 0.00 0.00 61 1017.6
20240722154503 82 0 0.0 0.0 0.00 0.00 0.00 60 1017.7
20240722154003 82 0 0.0 0.0 0.00 0.00 0.00 61 1017.7
20240722153503 82 251 0.0 2.0 0.00 0.00 0.00 60 1017.6
20240722153212 81 251 0.0 2.0 0.00 0.00 0.00 59 1017.6
20240722152503 81 0 0.0 0.0 0.00 0.00 0.00 60 1017.6
20240722152212 81 0 0.0 0.0 0.00 0.00 0.00 61 1017.7
20240722151713 80 0 0.0 0.0 0.00 0.00 0.00 64 1017.7
20240722151003 80 0 0.0 0.0 0.00 0.00 0.00 63 1017.8
20240722150503 79 0 0.0 0.0 0.00 0.00 0.00 63 1017.8
20240722150003 79 0 0.0 0.0 0.00 0.00 0.00 64 1017.9
20240722145503 79 0 0.0 0.0 0.00 0.00 0.00 65 1018.0
20240722145003 79 0 0.0 0.0 0.00 0.00 0.00 64 1018.0
20240722144503 78 248 0.0 1.0 0.00 0.00 0.00 66 1018.0
20240722144003 78 248 0.0 3.0 0.00 0.00 0.00 65 1018.0
20240722143503 78 248 0.0 3.0 0.00 0.00 0.00 66 1018.1
20240722143003 78 0 0.0 0.0 0.00 0.00 0.00 67 1018.1
20240722142503 77 0 0.0 0.0 0.00 0.00 0.00 68 1018.2
20240722142003 77 0 0.0 0.0 0.00 0.00 0.00 68 1018.1
20240722141503 77 0 0.0 0.0 0.00 0.00 0.00 68 1018.0
20240722141214 76 0 0.0 0.0 0.00 0.00 0.00 70 1018.0
20240722140503 76 250 0.0 1.0 0.00 0.00 0.00 69 1018.1
20240722140003 75 250 0.0 1.0 0.00 0.00 0.00 68 1018.1
20240722135503 75 0 0.0 0.0 0.00 0.00 0.00 70 1018.1
20240722135003 75 0 0.0 0.0 0.00 0.00 0.00 72 1018.2
20240722134503 74 0 0.0 0.0 0.00 0.00 0.00 70 1018.2
20240722134003 74 0 0.0 0.0 0.00 0.00 0.00 71 1018.2
20240722133504 74 0 0.0 0.0 0.00 0.00 0.00 71 1018.2
20240722133003 73 0 0.0 0.0 0.00 0.00 0.00 71 1018.3
20240722132713 73 0 0.0 0.0 0.00 0.00 0.00 71 1018.3
20240722132003 73 0 0.0 0.0 0.00 0.00 0.00 71 1018.4
20240722131503 72 0 0.0 0.0 0.00 0.00 0.00 73 1018.5
20240722131003 72 0 0.0 0.0 0.00 0.00 0.00 72 1018.4
20240722130712 72 0 0.0 0.0 0.00 0.00 0.00 75 1018.3
20240722130003 71 0 0.0 0.0 0.00 0.00 0.00 76 1018.2
20240722125712 71 0 0.0 0.0 0.00 0.00 0.00 77 1018.2
20240722125003 71 0 0.0 0.0 0.00 0.00 0.00 78 1018.1
20240722124503 70 0 0.0 0.0 0.00 0.00 0.00 79 1018.0
20240722124003 70 0 0.0 0.0 0.00 0.00 0.00 79 1018.1
20240722123713 70 0 0.0 0.0 0.00 0.00 0.00 78 1018.1
20240722123003 69 0 0.0 0.0 0.00 0.00 0.00 79 1018.0
20240722122503 69 0 0.0 0.0 0.00 0.00 0.00 78 1018.1
20240722122213 69 0 0.0 0.0 0.00 0.00 0.00 79 1018.1
20240722121503 69 0 0.0 0.0 0.00 0.00 0.00 79 1018.1
20240722121213 69 0 0.0 0.0 0.00 0.00 0.00 79 1018.1
20240722120714 68 0 0.0 0.0 0.00 0.00 0.00 79 1018.0
20240722120003 68 0 0.0 0.0 0.00 0.00 0.00 79 1018.1
20240722115714 68 0 0.0 0.0 0.00 0.00 0.00 80 1018.2
20240722115003 68 0 0.0 0.0 0.00 0.00 0.00 80 1018.2
20240722114714 68 0 0.0 0.0 0.00 0.00 0.00 81 1018.1
20240722114003 67 0 0.0 0.0 0.00 0.00 0.00 82 1018.2
20240722113714 67 0 0.0 0.0 0.00 0.00 0.00 82 1018.2
20240722113003 67 0 0.0 0.0 0.00 0.00 0.00 82 1018.1
20240722112503 67 0 0.0 0.0 0.00 0.00 0.00 83 1018.1
20240722112213 67 0 0.0 0.0 0.00 0.00 0.00 84 1018.1
20240722111503 66 0 0.0 0.0 0.00 0.00 0.00 83 1018.0
20240722111003 66 0 0.0 0.0 0.00 0.00 0.00 83 1018.0
20240722110503 66 0 0.0 0.0 0.00 0.00 0.00 84 1017.9
20240722110003 66 0 0.0 0.0 0.00 0.00 0.00 84 1017.9
20240722105503 66 0 0.0 0.0 0.00 0.00 0.00 84 1017.8
20240722105003 66 0 0.0 0.0 0.00 0.00 0.00 84 1017.8
20240722104503 66 0 0.0 0.0 0.00 0.00 0.00 85 1017.8
20240722104003 66 0 0.0 0.0 0.00 0.00 0.00 85 1017.8
20240722103503 66 0 0.0 0.0 0.00 0.00 0.00 85 1017.7
20240722103003 66 0 0.0 0.0 0.00 0.00 0.00 86 1017.7
20240722102503 66 0 0.0 0.0 0.00 0.00 0.00 86 1017.7
20240722102003 66 0 0.0 0.0 0.00 0.00 0.00 86 1017.6
20240722101503 66 0 0.0 0.0 0.00 0.00 0.00 86 1017.6
20240722101003 66 0 0.0 0.0 0.00 0.00 0.00 85 1017.6
20240722100503 66 0 0.0 0.0 0.00 0.00 0.00 85 1017.6
20240722100003 66 0 0.0 0.0 0.00 0.00 0.00 85 1017.5
20240722095503 65 0 0.0 0.0 0.00 0.00 0.00 85 1017.4
20240722095214 65 0 0.0 0.0 0.00 0.00 0.00 85 1017.4
20240722094503 66 0 0.0 0.0 0.00 0.00 0.00 86 1017.4
20240722094003 66 0 0.0 0.0 0.00 0.00 0.00 86 1017.4
20240722093503 66 0 0.0 0.0 0.00 0.00 0.00 86 1017.3
20240722093003 66 0 0.0 0.0 0.00 0.00 0.00 87 1017.3
20240722092503 66 0 0.0 0.0 0.00 0.00 0.00 86 1017.3
20240722092003 66 0 0.0 0.0 0.00 0.00 0.00 86 1017.3
20240722091713 66 0 0.0 0.0 0.00 0.00 0.00 86 1017.3
20240722091003 66 0 0.0 0.0 0.00 0.00 0.00 86 1017.3
20240722090713 66 0 0.0 0.0 0.00 0.00 0.00 86 1017.2
20240722090004 66 0 0.0 0.0 0.00 0.00 0.00 86 1017.2
20240722085713 66 0 0.0 0.0 0.00 0.00 0.00 86 1017.2
20240722085214 66 0 0.0 0.0 0.00 0.00 0.00 87 1017.2
20240722084503 66 0 0.0 0.0 0.00 0.00 0.00 87 1017.2
20240722084003 66 0 0.0 0.0 0.00 0.00 0.00 87 1017.2
20240722083503 66 0 0.0 0.0 0.00 0.00 0.00 88 1017.2
20240722083003 66 0 0.0 0.0 0.00 0.00 0.00 88 1017.2
20240722082503 66 0 0.0 0.0 0.00 0.00 0.00 88 1017.2
20240722082214 66 0 0.0 0.0 0.00 0.00 0.00 88 1017.2
20240722081503 66 0 0.0 0.0 0.00 0.00 0.00 88 1017.0
20240722081003 66 0 0.0 0.0 0.00 0.00 0.00 88 1017.0
20240722080503 66 0 0.0 0.0 0.00 0.00 0.00 88 1016.9
20240722080003 67 0 0.0 0.0 0.00 0.00 0.00 88 1016.9
20240722075713 67 0 0.0 0.0 0.00 0.00 0.00 88 1016.9
20240722075003 67 0 0.0 0.0 0.00 0.00 0.00 88 1016.9
20240722074503 67 0 0.0 0.0 0.00 0.00 0.00 87 1016.9
20240722074003 67 0 0.0 0.0 0.00 0.00 0.00 87 1016.9
20240722073503 67 0 0.0 0.0 0.00 0.00 0.00 87 1016.9
20240722073003 67 0 0.0 0.0 0.00 0.00 0.00 87 1016.9
20240722072503 67 0 0.0 0.0 0.00 0.00 0.00 87 1016.9
20240722072003 68 0 0.0 0.0 0.00 0.00 0.00 87 1016.9
20240722071503 68 0 0.0 0.0 0.00 0.00 0.00 87 1016.9
20240722071003 68 0 0.0 0.0 0.00 0.00 0.00 87 1016.9
20240722070714 68 0 0.0 0.0 0.00 0.00 0.00 86 1016.9
20240722070003 68 0 0.0 0.0 0.00 0.00 0.00 86 1016.9
20240722065714 68 0 0.0 0.0 0.00 0.00 0.00 86 1016.9
20240722065213 68 0 0.0 0.0 0.00 0.00 0.00 86 1016.9
20240722064503 68 0 0.0 0.0 0.00 0.00 0.00 86 1016.8
20240722064003 69 0 0.0 0.0 0.00 0.00 0.00 85 1016.8
20240722063504 69 0 0.0 0.0 0.00 0.00 0.00 85 1016.8
20240722063003 69 0 0.0 0.0 0.00 0.00 0.00 85 1016.8
20240722062503 69 0 0.0 0.0 0.00 0.00 0.00 85 1016.8
20240722062003 69 0 0.0 0.0 0.00 0.00 0.00 85 1016.8
20240722061503 69 0 0.0 0.0 0.00 0.00 0.00 85 1016.8
20240722061003 70 0 0.0 0.0 0.00 0.00 0.00 84 1016.7
20240722060714 70 0 0.0 0.0 0.00 0.00 0.00 84 1016.7
20240722060213 70 0 0.0 0.0 0.00 0.00 0.00 84 1016.7
20240722055503 70 0 0.0 0.0 0.00 0.00 0.00 83 1016.8
20240722055003 70 0 0.0 0.0 0.00 0.00 0.00 83 1016.7
20240722054503 70 0 0.0 0.0 0.00 0.00 0.00 83 1016.7
20240722054003 70 0 0.0 0.0 0.00 0.00 0.00 83 1016.7
20240722053503 71 0 0.0 0.0 0.00 0.00 0.00 82 1016.7
20240722053003 71 0 0.0 0.0 0.00 0.00 0.00 81 1016.6
20240722052503 71 0 0.0 0.0 0.00 0.00 0.00 81 1016.7
20240722052003 71 0 0.0 0.0 0.00 0.00 0.00 80 1016.7
20240722051714 72 0 0.0 0.0 0.00 0.00 0.00 80 1016.8
20240722051003 72 0 0.0 0.0 0.00 0.00 0.00 79 1016.7
20240722050503 72 0 0.0 0.0 0.00 0.00 0.00 79 1016.7
20240722050003 72 0 0.0 0.0 0.00 0.00 0.00 78 1016.6
20240722045503 73 0 0.0 0.0 0.00 0.00 0.00 77 1016.6
20240722045004 72 0 0.0 0.0 0.00 0.00 0.00 77 1016.6
20240722044503 73 0 0.0 0.0 0.00 0.00 0.00 77 1016.8
20240722044003 73 0 0.0 0.0 0.00 0.00 0.00 76 1016.8
20240722043503 73 0 0.0 0.0 0.00 0.00 0.00 76 1016.7
20240722043003 73 0 0.0 0.0 0.00 0.00 0.00 75 1016.7
20240722042503 73 0 0.0 0.0 0.00 0.00 0.00 75 1016.6
20240722042003 73 0 0.0 0.0 0.00 0.00 0.00 75 1016.7
20240722041503 73 0 0.0 0.0 0.00 0.00 0.00 76 1016.7
20240722041003 73 0 0.0 0.0 0.00 0.00 0.00 76 1016.6
20240722040503 73 0 0.0 0.0 0.00 0.00 0.00 77 1016.6
20240722040004 73 0 0.0 0.0 0.00 0.00 0.00 80 1016.5
20240722035713 72 0 0.0 0.0 0.00 0.00 0.00 80 1016.5
20240722035003 72 0 0.0 0.0 0.00 0.00 0.00 81 1016.4
20240722034503 72 0 0.0 0.0 0.00 0.00 0.00 80 1016.4
20240722034214 72 0 0.0 0.0 0.00 0.00 0.00 80 1016.3
20240722033503 72 0 0.0 0.0 0.00 0.00 0.00 81 1016.3
20240722033214 72 0 0.0 0.0 0.00 0.00 0.00 81 1016.3
20240722032503 72 0 0.0 0.0 0.00 0.00 0.00 82 1016.3
20240722032003 72 0 0.0 0.0 0.00 0.00 0.00 82 1016.2
20240722031503 72 0 0.0 0.0 0.00 0.00 0.00 82 1016.2
20240722031003 72 0 0.0 0.0 0.00 0.00 0.00 82 1016.2
20240722030503 72 0 0.0 0.0 0.00 0.00 0.00 82 1016.2
20240722030214 72 0 0.0 0.0 0.00 0.00 0.00 81 1016.1
20240722025503 72 0 0.0 0.0 0.00 0.00 0.00 81 1016.1
20240722025214 73 0 0.0 0.0 0.00 0.00 0.00 81 1016.1
20240722024503 73 0 0.0 0.0 0.00 0.00 0.00 80 1016.1
20240722024003 73 0 0.0 0.0 0.00 0.00 0.00 80 1016.0
20240722023503 73 0 0.0 0.0 0.00 0.00 0.00 80 1016.0
20240722023003 73 0 0.0 0.0 0.00 0.00 0.00 79 1016.0
20240722022503 74 0 0.0 0.0 0.00 0.00 0.00 79 1016.1
20240722022003 74 0 0.0 0.0 0.00 0.00 0.00 78 1016.0
20240722021713 74 0 0.0 0.0 0.00 0.00 0.00 78 1016.0
20240722021003 74 0 0.0 0.0 0.00 0.00 0.00 78 1016.0
20240722020503 74 0 0.0 0.0 0.00 0.00 0.00 77 1016.0
20240722020213 75 0 0.0 0.0 0.00 0.00 0.00 77 1016.0
20240722015503 75 0 0.0 0.0 0.00 0.00 0.00 75 1015.9
20240722015003 75 0 0.0 0.0 0.00 0.00 0.00 75 1015.9
20240722014503 75 0 0.0 0.0 0.00 0.00 0.00 75 1015.8
20240722014003 76 0 0.0 0.0 0.00 0.00 0.00 75 1015.8
20240722013503 76 0 0.0 0.0 0.00 0.00 0.00 74 1015.8
20240722013003 76 0 0.0 0.0 0.00 0.00 0.00 74 1015.8
20240722012503 76 0 0.0 0.0 0.00 0.00 0.00 74 1015.7
20240722012003 76 0 0.0 0.0 0.00 0.00 0.00 73 1015.7
20240722011503 76 0 0.0 0.0 0.00 0.00 0.00 72 1015.7
20240722011003 76 0 0.0 0.0 0.00 0.00 0.00 72 1015.6
20240722010714 76 0 0.0 0.0 0.00 0.00 0.00 72 1015.5
20240722010003 76 0 0.0 0.0 0.00 0.00 0.00 72 1015.5
20240722005503 77 0 0.0 0.0 0.00 0.00 0.00 72 1015.4
20240722005003 77 0 0.0 0.0 0.00 0.00 0.00 71 1015.4
20240722004714 77 0 0.0 0.0 0.00 0.00 0.00 71 1015.3
20240722004213 77 0 0.0 0.0 0.00 0.00 0.00 71 1015.3
20240722003503 78 0 0.0 0.0 0.00 0.00 0.00 70 1015.2
20240722003003 78 0 0.0 0.0 0.00 0.00 0.00 69 1015.1
20240722002503 78 0 0.0 0.0 0.00 0.00 0.00 68 1015.1
20240722002003 78 0 0.0 0.0 0.00 0.00 0.00 68 1015.1
20240722001503 79 0 0.0 0.0 0.00 0.00 0.00 67 1015.1
20240722001003 80 0 0.0 0.0 0.00 0.00 0.00 67 1015.1
20240722000503 80 0 0.0 0.0 0.00 0.00 0.00 66 1015.0
20240722000213 80 0 0.0 0.0 0.00 0.00 0.00 66 1015.0
20240721235503 80 0 0.0 0.0 0.00 0.00 0.00 65 1014.9
20240721235003 81 0 0.0 0.0 0.00 0.00 0.00 63 1014.9
20240721234503 81 0 0.0 0.0 0.00 0.00 0.00 62 1014.7
20240721234003 81 0 0.0 0.0 0.00 0.00 0.00 63 1014.7